TimeEST,TemperatureF,Dew PointF,Humidity,Sea Level PressureIn,VisibilityMPH,Wind Direction,Wind SpeedMPH,Gust SpeedMPH,PrecipitationIn,Events,Conditions,WindDirDegrees,DateUTC
12:15 AM,32.0,19.4,60,30.12,10.0,South,6.9,-,N/A,,Clear,190,2013-12-19 05:15:00
12:35 AM,32.0,19.4,60,30.12,10.0,South,5.8,-,N/A,,Clear,190,2013-12-19 05:35:00
12:55 AM,32.0,19.4,60,30.11,10.0,South,5.8,-,N/A,,Clear,190,2013-12-19 05:55:00
1:15 AM,32.0,17.6,55,30.10,10.0,South,5.8,-,N/A,,Clear,180,2013-12-19 06:15:00
1:35 AM,32.0,14.0,48,30.10,10.0,South,5.8,-,N/A,,Clear,180,2013-12-19 06:35:00
1:55 AM,32.0,14.0,48,30.09,10.0,South,5.8,-,N/A,,Clear,170,2013-12-19 06:55:00
2:15 AM,33.8,12.2,41,30.09,10.0,SSE,3.5,-,N/A,,Clear,160,2013-12-19 07:15:00
2:35 AM,35.6,12.2,38,30.10,10.0,South,3.5,-,N/A,,Clear,180,2013-12-19 07:35:00
2:55 AM,33.8,14.0,44,30.09,10.0,Calm,Calm,-,N/A,,Clear,0,2013-12-19 07:55:00
3:15 AM,35.6,17.6,48,30.09,10.0,SSW,5.8,-,N/A,,Clear,200,2013-12-19 08:15:00
3:35 AM,37.4,19.4,48,30.09,10.0,SSW,10.4,-,N/A,,Clear,210,2013-12-19 08:35:00
3:55 AM,41.0,21.2,45,30.09,10.0,SSW,15.0,21.9,N/A,,Clear,210,2013-12-19 08:55:00
4:15 AM,44.6,21.2,39,30.10,10.0,SSW,15.0,21.9,N/A,,Clear,210,2013-12-19 09:15:00
4:35 AM,44.6,21.2,39,30.11,10.0,SW,12.7,19.6,N/A,,Clear,220,2013-12-19 09:35:00
4:55 AM,44.6,21.2,39,30.12,10.0,SW,12.7,-,N/A,,Clear,220,2013-12-19 09:55:00
5:15 AM,44.6,21.2,39,30.12,10.0,SW,12.7,19.6,N/A,,Clear,220,2013-12-19 10:15:00
5:35 AM,44.6,21.2,39,30.13,10.0,SW,12.7,19.6,N/A,,Clear,220,2013-12-19 10:35:00
5:55 AM,46.4,21.2,37,30.14,10.0,SW,16.1,20.7,N/A,,Clear,220,2013-12-19 10:55:00
6:15 AM,46.4,21.2,37,30.14,10.0,SSW,13.8,19.6,N/A,,Clear,210,2013-12-19 11:15:00
6:35 AM,46.4,21.2,37,30.15,10.0,SSW,13.8,21.9,N/A,,Clear,210,2013-12-19 11:35:00
6:55 AM,46.4,21.2,37,30.16,10.0,SW,12.7,19.6,N/A,,Clear,220,2013-12-19 11:55:00
7:15 AM,46.4,21.2,37,30.16,10.0,SSW,9.2,20.7,N/A,,Clear,210,2013-12-19 12:15:00
7:35 AM,46.4,19.4,34,30.16,10.0,SSW,12.7,-,N/A,,Clear,200,2013-12-19 12:35:00
7:55 AM,46.4,19.4,34,30.16,10.0,SSW,10.4,18.4,N/A,,Clear,200,2013-12-19 12:55:00
8:15 AM,46.4,19.4,34,30.17,10.0,SSW,9.2,-,N/A,,Clear,200,2013-12-19 13:15:00
8:35 AM,48.2,19.4,32,30.17,10.0,SSW,11.5,-,N/A,,Clear,210,2013-12-19 13:35:00
8:55 AM,48.2,19.4,32,30.17,10.0,SSW,11.5,-,N/A,,Clear,200,2013-12-19 13:55:00
9:15 AM,50.0,21.2,32,30.17,10.0,SSW,15.0,18.4,N/A,,Clear,210,2013-12-19 14:15:00
9:35 AM,51.8,21.2,30,30.18,10.0,SW,16.1,24.2,N/A,,Clear,230,2013-12-19 14:35:00
9:55 AM,51.8,21.2,30,30.18,10.0,SSW,12.7,26.5,N/A,,Clear,210,2013-12-19 14:55:00
10:15 AM,51.8,21.2,30,30.19,10.0,SW,16.1,23.0,N/A,,Clear,230,2013-12-19 15:15:00
10:35 AM,51.8,21.2,30,30.19,10.0,SW,20.7,31.1,N/A,,Clear,230,2013-12-19 15:35:00
10:55 AM,51.8,23.0,33,30.18,10.0,SW,16.1,24.2,N/A,,Clear,230,2013-12-19 15:55:00
11:15 AM,53.6,24.8,33,30.17,10.0,SW,19.6,27.6,N/A,,Clear,230,2013-12-19 16:15:00
11:35 AM,53.6,26.6,35,30.16,10.0,SW,17.3,26.5,N/A,,Clear,230,2013-12-19 16:35:00
11:55 AM,53.6,28.4,38,30.16,10.0,WSW,15.0,23.0,N/A,,Clear,240,2013-12-19 16:55:00
12:15 PM,55.4,30.2,38,30.14,10.0,SW,16.1,21.9,N/A,,Clear,220,2013-12-19 17:15:00
12:35 PM,55.4,30.2,38,30.13,10.0,WSW,16.1,25.3,N/A,,Clear,250,2013-12-19 17:35:00
12:55 PM,55.4,30.2,38,30.12,10.0,SW,18.4,32.2,N/A,,Clear,230,2013-12-19 17:55:00
1:15 PM,55.4,32.0,41,30.11,10.0,WSW,21.9,32.2,N/A,,Clear,250,2013-12-19 18:15:00
1:35 PM,55.4,30.2,38,30.11,10.0,SW,18.4,25.3,N/A,,Clear,220,2013-12-19 18:35:00
1:55 PM,55.4,28.4,36,30.10,10.0,SW,16.1,29.9,N/A,,Clear,230,2013-12-19 18:55:00
2:15 PM,57.2,28.4,33,30.10,10.0,SW,12.7,-,N/A,,Clear,220,2013-12-19 19:15:00
2:35 PM,55.4,26.6,33,30.10,10.0,SW,13.8,21.9,N/A,,Clear,220,2013-12-19 19:35:00
2:55 PM,55.4,24.8,31,30.10,10.0,SW,18.4,21.9,N/A,,Clear,230,2013-12-19 19:55:00
3:15 PM,55.4,24.8,31,30.10,10.0,SW,16.1,-,N/A,,Clear,230,2013-12-19 20:15:00
3:35 PM,55.4,23.0,29,30.10,10.0,SW,12.7,18.4,N/A,,Clear,220,2013-12-19 20:35:00
3:55 PM,55.4,23.0,29,30.11,10.0,SW,12.7,19.6,N/A,,Clear,220,2013-12-19 20:55:00
4:15 PM,53.6,23.0,30,30.11,10.0,SW,11.5,23.0,N/A,,Clear,220,2013-12-19 21:15:00
4:35 PM,53.6,21.2,28,30.11,10.0,SW,13.8,18.4,N/A,,Clear,220,2013-12-19 21:35:00
4:55 PM,53.6,21.2,28,30.11,10.0,SW,9.2,-,N/A,,Clear,220,2013-12-19 21:55:00
5:15 PM,53.6,21.2,28,30.12,10.0,SW,10.4,-,N/A,,Clear,220,2013-12-19 22:15:00
5:35 PM,53.6,23.0,30,30.11,10.0,SSW,6.9,-,N/A,,Clear,210,2013-12-19 22:35:00
5:55 PM,51.8,23.0,33,30.11,10.0,SSW,6.9,-,N/A,,Clear,200,2013-12-19 22:55:00
6:15 PM,51.8,23.0,33,30.11,10.0,SSW,4.6,-,N/A,,Clear,210,2013-12-19 23:15:00
6:35 PM,51.8,23.0,33,30.11,10.0,South,4.6,-,N/A,,Clear,190,2013-12-19 23:35:00
6:55 PM,48.2,23.0,37,30.10,10.0,South,5.8,-,N/A,,Clear,190,2013-12-19 23:55:00
7:15 PM,48.2,23.0,37,30.10,10.0,South,6.9,-,N/A,,Clear,190,2013-12-20 00:15:00
7:35 PM,46.4,24.8,43,30.10,10.0,South,6.9,-,N/A,,Clear,190,2013-12-20 00:35:00
7:55 PM,46.4,24.8,43,30.09,10.0,South,5.8,-,N/A,,Clear,180,2013-12-20 00:55:00
8:15 PM,46.4,24.8,43,30.09,10.0,South,6.9,-,N/A,,Clear,190,2013-12-20 01:15:00
8:35 PM,46.4,24.8,43,30.09,10.0,South,5.8,-,N/A,,Clear,180,2013-12-20 01:35:00
8:55 PM,46.4,24.8,43,30.09,10.0,South,5.8,-,N/A,,Clear,190,2013-12-20 01:55:00
9:15 PM,48.2,23.0,37,30.09,10.0,SSW,5.8,-,N/A,,Clear,200,2013-12-20 02:15:00
9:35 PM,46.4,24.8,43,30.09,10.0,South,5.8,-,N/A,,Clear,190,2013-12-20 02:35:00
9:55 PM,48.2,23.0,37,30.08,10.0,SSW,4.6,-,N/A,,Clear,210,2013-12-20 02:55:00
10:15 PM,48.2,23.0,37,30.08,10.0,SSW,8.1,-,N/A,,Clear,200,2013-12-20 03:15:00
10:35 PM,50.0,23.0,35,30.07,10.0,SSW,8.1,-,N/A,,Clear,210,2013-12-20 03:35:00
10:55 PM,51.8,21.2,30,30.07,10.0,SSW,8.1,-,N/A,,Clear,210,2013-12-20 03:55:00
11:15 PM,51.8,21.2,30,30.07,10.0,SSW,5.8,-,N/A,,Clear,200,2013-12-20 04:15:00
11:35 PM,51.8,21.2,30,30.07,10.0,South,4.6,-,N/A,,Clear,190,2013-12-20 04:35:00
11:55 PM,51.8,21.2,30,30.07,10.0,SSW,5.8,-,N/A,,Clear,200,2013-12-20 04:55:00